Current weather by "City, St" or "zip code"  
 

Current Conditions: Allentown Queen City Municipal Airport, PA

Fair


86.0 F

Last Updated on Jul 3 2022, 2:55 pm EDT
Humidity: 31%
Wind Speed: W 8.1 mph
Barometer 30.04 in
Dewpoint: 51.8 F
Visibility: 10.00 mi
Precip: --
Heat Index: 84 F
Wind Chill: NA
Current conditions at:

Allentown Queen City Municipal Airport, PA (KXLL)

Lat: 40.57 Lon: 75.488

Local Radar Image active severe weather and emergency alerts image image weather storm and storm spotter reports image weather observation monitoring service image
Local
Radar
Active
Alerts
Storm Reports Obs
Monitoring

Sign-up For Email & Text Message Weather Alert Notification Services



Advertise Here

Observation History for Allentown Queen City Municipal Airport, PA


Time Wind
(mph)
Vis
(mi)
Weather Precip (in) Temperature (F) Relative
Humidity
Wind
Chill
(F)
Heat
Index
(F)
Pressure
Air Dwpt altimeter
(in)
sea level
(mb)
Rmks
2:55 pm EDT W 8.1 10.00 Fair -- 86.0 51.8 31% NA 84 30.04 M
2:35 pm EDT NW 5.8 G 9.2 10.00 Fair -- 82.0 50.0 32% NA 81 30.04 M
2:15 pm EDT W 8.1 10.00 Fair -- 82.0 51.8 35% NA 81 30.05 M
1:55 pm EDT W 4.6 10.00 Fair -- 82.0 51.8 35% NA 81 30.05 M
1:35 pm EDT N 6.9 10.00 Fair -- 82.0 51.8 35% NA 81 30.06 M
1:15 pm EDT NW 6.9 10.00 Fair -- 82.0 51.8 35% NA 81 30.07 M
12:55 pm EDT N 6.9 10.00 Fair -- 82.0 51.8 35% NA 81 30.07 M
12:35 pm EDT N 5.8 10.00 Fair -- 82.0 51.8 35% NA 81 30.07 M
12:15 pm EDT NW 4.6 G 10.4 10.00 Fair -- 81.0 51.8 37% NA 80 30.07 M
11:55 am EDT N 11.5 G 17.3 10.00 Fair -- 82.0 50.0 32% NA 81 30.07 M
11:35 am EDT N 8.1 G 16.1 10.00 Fair -- 81.0 55.4 42% NA 81 30.07 M
11:15 am EDT N 11.5 G 16.1 10.00 Fair -- 81.0 55.4 42% NA 81 30.08 M
10:55 am EDT N 6.9 10.00 Fair -- 79.0 59.0 51% NA NA 30.08 M
10:35 am EDT N 6.9 10.00 Fair -- 79.0 59.0 51% NA NA 30.07 M
10:15 am EDT NE 6.9 10.00 Fair -- 77.0 57.2 51% NA NA 30.07 M
9:55 am EDT N 6.9 10.00 Fair -- 79.0 59.0 51% NA NA 30.07 M
9:35 am EDT NE 5.8 10.00 Fair -- 77.0 59.0 54% NA NA 30.07 M
9:15 am EDT NE 3.5 10.00 Fair -- 75.0 59.0 57% NA NA 30.07 M
8:55 am EDT NE 5.8 10.00 Fair -- 75.0 59.0 57% NA NA 30.07 M
8:35 am EDT N 0.0 10.00 Fair -- 73.0 60.8 65% NA NA 30.06 M
8:15 am EDT N 3.5 10.00 Fair -- 73.0 60.8 65% NA NA 30.05 M
7:55 am EDT NW 3.5 10.00 Fair -- 72.0 59.0 65% NA NA 30.05 M
7:35 am EDT N 0.0 10.00 Fair -- 72.0 59.0 65% NA NA 30.04 M
7:15 am EDT N 4.6 10.00 Fair -- 72.0 60.8 69% NA NA 30.03 M

Regional Weather Observation


Lehighton Jake Arner Memorial Airport, PA (K22N)

Fair
82.0 F

Allentown, Lehigh Valley International Airport, PA (KABE)

Fair
85.0 F

Allentown Queen City Municipal Airport, PA (KXLL)

Fair
86.0 F

Reading, Reading Regional Airport, PA (KRDG)

Fair
86.0 F

Quakertown Airport, PA (KUKT)

Fair
86.0 F

Pennridge Airport, PA (KCKZ)

Fair
84.0 F

Advertise Here


Advertise Here